HST
1 20580U 90037B   24362.71820039  .00011545  00000-0  48246-3 0  9994
2 20580  28.4675 124.5630 0002343  15.4360 344.6305 15.22001386706502
ISS (ZARYA)
1 25544U 98067A   24363.22075943  .00029900  00000-0  52305-3 0  9998
2 25544  51.6398  74.0082 0005933  14.3520  81.6203 15.50355175488647
CXO
1 25867U 99040B   24363.54907146  .00000542  00000-0  00000-0 0  9995
2 25867  45.6069 138.9847 8664881 305.6489   0.2812  0.37806673 15296